Regional Weather Roundup
Issued by NWS Upton, NY

Current Version | Previous Version | Text Only | Print | Product List | Glossary Off
Versions: 1 2 3 4 5 6 7 8 9 10 11 12 13 14 15 16 17 18 19 20 21 22 23 24 25 26 27 28 29 30 31 32 33 34 35 36 37 38 39 40 41 42 43 44 45 46 47 48 49 50
000 ASUS41 KOKX 011105 RWROKX REGIONAL WEATHER ROUNDUP NATIONAL WEATHER SERVICE NEW YORK NY 700 AM EDT WED OCT 01 2014 NOTE: "FAIR" INDICATES FEW OR NO CLOUDS BELOW 12,000 FEET WITH NO SIGNIFICANT WEATHER AND/OR OBSTRUCTIONS TO VISIBILITY. NYZ071-072-176-178-NJZ106-104-011200- NEW YORK CITY METRO AREA CITY SKY/WX TMP DP RH WIND PRES REMARKS CENTRAL PARK CLOUDY 63 55 75 NE5 30.04R LAGUARDIA APRT LGT RAIN 61 58 90 N9 30.01R KENNEDY INTL DRIZZLE 62 58 86 N10 30.01R NEWARK/LIBERTY CLOUDY 62 56 80 N12 30.01R BRNX BOT. GARD N/A 59 55 88 NW7 30.02S TETERBORO CLOUDY 62 55 77 N5 30.00R $$ NYZ177-179-078>081-011200- LONG ISLAND NEW YORK CITY SKY/WX TMP DP RH WIND PRES REMARKS FARMINGDALE LGT RAIN 61 59 93 NE7 30.00R FOG ISLIP DRIZZLE 60 58 92 NE10 29.98R FOG SHIRLEY CLOUDY 60 58 92 N5 30.00R WESTHAMPTON LGT RAIN 59 57 93 N9 30.01R MONTAUK POINT N/A 60 58 92 NE9G17 30.00R $$ NYZ052-065-067-011200- HUDSON VALLEY CITY SKY/WX TMP DP RH WIND PRES REMARKS WHITE PLAINS LGT RAIN 59 57 93 N8 30.01S FOG NEWBURGH CLOUDY 59 57 94 E6 30.04R MONTGOMERY CLOUDY 57 55 93 CALM 30.03R POUGHKEEPSIE CLOUDY 60 56 86 CALM 30.03R ALBANY CLOUDY 60 56 86 CALM 30.05R $$ NJZ001-105-106-008-010-013-015-019>022-104-011200- NEW JERSEY CITY SKY/WX TMP DP RH WIND PRES REMARKS NEWARK/LIBERTY CLOUDY 62 56 80 N12 30.01R TETERBORO CLOUDY 62 55 77 N5 30.00R CALDWELL CLOUDY 59 54 83 CALM 30.02R MORRISTOWN CLOUDY 61 57 88 NE5 30.02R SOMERVILLE MOCLDY 58 55 90 NW3 30.00R LINDEN PTSUNNY 66 59 78 N7 30.02R SUSSEX CLOUDY 60 56 86 NE3 30.03R ANDOVER N/A 58 56 93 NE5 30.03R TRENTON MOCLDY 61 56 83 NE5 30.00R MILLVILLE CLOUDY 62 59 90 NE8 29.98R ATLANTIC CITY CLOUDY 61 61 100 N10 29.97R WRIGHTSTOWN CLOUDY 61 61 99 NE9 29.98R TOMS RIVER CLOUDY 61 59 94 N3 30.00R BELMAR CLOUDY 61 55 82 N3 29.99R $$ PAZ047>061-062-071-011200- EASTERN PENNSYLVANIA CITY SKY/WX TMP DP RH WIND PRES REMARKS PHILADELPHIA CLOUDY 64 58 80 NE9 29.99R ALLENTOWN CLOUDY 59 56 89 NE6 30.01R SCRANTON PTCLDY 59 55 87 E6 30.01S $$ CTZ002-004>006-009-010-012-RIZ004-006-007-MAZ004-011-015-011200- SOUTHERN NEW ENGLAND IN CT CITY SKY/WX TMP DP RH WIND PRES REMARKS BRADLEY INTL LGT RAIN 59 56 89 N6 30.03R HARTFORD LGT RAIN 59 56 89 N12 30.03R DANBURY LGT RAIN 58 56 93 NE5 30.04R FOG WTRBRY/OXFORD LGT RAIN 57 52 82 NE8 30.04R FOG BRIDGEPORT LGT RAIN 59 58 96 N12 30.01R MERIDEN LGT RAIN 58 56 93 N6 30.03R NEW HAVEN LGT RAIN 61 57 87 N13 30.01R CHESTER HVY RAIN 57 55 94 N6 30.02R GROTON LGT RAIN 57 56 96 N9 30.00R WILLIMANTIC CLOUDY 58 55 90 NE9 30.02R IN RI CITY SKY/WX TMP DP RH WIND PRES REMARKS PROVIDENCE CLOUDY 58 56 93 N16 30.01S BLOCK ISLAND CLOUDY 61 55 82 NE13G18 29.99R WESTERLY CLOUDY 58 56 93 N8 30.00R IN MA CITY SKY/WX TMP DP RH WIND PRES REMARKS BOSTON CLOUDY 57 56 96 N13 30.04R WORCESTER LGT RAIN 54 53 97 NE13G21 30.04R FOG WESTFIELD LGT RAIN 58 56 93 N8 30.04R FOG PROVINCETOWN CLOUDY 61 59 94 NE14G21 30.01R NANTUCKET CLOUDY 63 61 93 NE15 29.96R $$ ANZ330-335-338-340-345-350-353-355-011200- COASTAL MARINE OBSERVATIONS STATION/POSITION TIME SKY/WX TEMP WIND PRES VSBY WAVE AIR SEA DIR/SP/G HT/PER (UTC) (F) (DEG/KT/KT) (MB) (MI) (FT/S) NY HARB ENTRANCE NOT AVBL 4S FIRE IS 1100 68 N/A 3/ 6 20S FIRE ISLAND 1100 62 67 40/ 14/ 17 1014.8 4/ 6 23SW MTP 1100 N/A 5/ 5 HUDSON CANYON 1100 66 69 20/ 19/ 23 1013.1 EXECUTION ROCKS 1100 62 68 30/ 14/ 17 N/A WESTERN LI SOUND 1100 61 20/ 10/ 12 N/A 1/ 3 CENTRAL LI SOUND 1000 60 68 40/ 14/ 17 N/A 2/ 3 EASTERN LI SOUND 1000 60 67 20/ 12/ 16 N/A ROBBINS REEF 1000 62 350/ 9/ 12 1014.6 $$ >>>>>>>>>>>>>>>>>>>>>>>>>>>> KEY <<<<<<<<<<<<<<<<<<<<<<<<<<< > < > SKY/WX - SKY CONDITION/PRESENT WEATHER < > TMP - TEMPERATURE IN FAHRENHEIT < > DP - DEWPOINT IN FAHRENHEIT < > RH - RELATIVE HUMIDITY IN PERCENT < > WIND - DIRECTION AND SPEED IN MPH < > PRES - MEAN SEA LEVEL PRESSURE IN INCHES OF HG < > WCI - WIND CHILL INDEX < > VSB - VISIBILITY IN MILES < > HX - HEAT INDEX < > TC - TEMPERATURE IN CELSIUS < > VRB - VARIABLE WIND DIRECTION < > < >>>>>>>>>>>>>>>>>>>>>>>>>>>> KEY <<<<<<<<<<<<<<<<<<<<<<<<<<<

USA.gov is the U.S. government's official web portal to all federal, state and local government web resources and services.